Location: Praha
(50.0830°N, 14.4670°E)
Time: 08:18:49
(UTC+02:00)

ISS - Pass Details

Date: 19 April 2025
Orbit: 417 x 420 km, 51.6° (Epoch: 29 April)

Event Time Altitude Azimuth Distance (km) Brightness Sun altitude
Rises 05:13:50 0° 190° (S) 2,345 -0.3 -7.8°
Reaches altitude 10° 05:17:16 10° 152° (SSE) 1,488 -0.9 -7.3°
Maximum altitude 05:18:13 11° 135° (SE) 1,435 -0.8 -7.1°
Drops below altitude 10° 05:19:09 10° 119° (ESE) 1,492 -0.5 -7.0°
Sets 05:22:36 0° 81° (E) 2,361 1.8 -6.5°
